• Join FlightAware (Why Join?)
  • Login
  • US Flag 
11:45AM EST


 

Airport Tracker/Info


-or-


 

Live Flight TrackerFlight Track Log ✈ SWA2166 ✈ 10-04-2013 ✈ KIND - KMDW

Flight Track Log - Related Links

Times and Time Zones

All times are in EDT time to prevent confusion due to time zone crossing. See the SWA2166 flight status page for this flight to view local times or setup timezone preferences in your user account.

Time Position Orientation Groundspeed Altitude Reporting Facility
EDT Latitude Longitude Course Direction KTS MPH feet Rate Location/Type
11:11AM 39.7014 -86.3267 North 144 166 21,000  Level Chicago Center
11:12AM 39.6703 -86.3628 222° Southwest 173 199 21,000 -3,837 Level Chicago Center
11:14AM 39.7616 -86.4207 322° Northwest  Level Estimated
11:14AM 39.7683 -86.3822 322° Northwest 337 388 10,000  Level Chicago Center
11:15AM 39.8608 -86.3489 15° North 347 399 12,300 1,415 Climbing Chicago Center
11:16AM 39.9650 -86.3036 18° North 385 443 12,900 390 Climbing Chicago Center
11:17AM 39.7688 -86.2876 North  Level FlightAware Approximate
11:17AM 40.0675 -86.2575 19° North 390 449 13,100  Level Chicago Center
11:18AM 40.1719 -86.2592 359° North 382 440 15,800 2,829 Climbing Chicago Center
11:19AM 40.2828 -86.2808 352° North 395 455 18,900 2,537 Climbing Chicago Center
11:20AM 40.4147 -86.3064 352° North 398 458 21,000 1,024 Climbing Chicago Center
11:22AM 40.5219 -86.3281 351° North 391 450 21,000  Level Chicago Center
11:23AM 40.6289 -86.3486 352° North 389 448 21,000  Level Chicago Center
11:24AM 40.7356 -86.3706 351° North 389 448 21,000 -244 Level Chicago Center
11:25AM 40.8417 -86.3911 352° North 387 445 20,500 -2,634 Descending Chicago Center
11:26AM 40.9503 -86.4144 351° North 393 452 15,600 -4,161 Descending Chicago Center
11:27AM 41.0558 -86.4519 345° North 396 456 11,900 -2,244 Descending Chicago Center
11:28AM 41.1014 -86.5597 299° West 341 392 11,000 -732 Descending Chicago Center
11:29AM 41.1494 -86.6733 299° West 305 351 10,400 -488 Descending Chicago Center
11:30AM 41.1839 -86.7514 300° West 268 308 10,000 -153 Descending Chicago Center
11:31AM 41.2333 -86.8833 297° West 260 299 10,000 -146 Level Chicago TRACON
11:32AM 41.2497 -86.9181 302° West 256 295 9,700 -1,213 Descending Chicago Center
11:33AM 41.2833 -87.0017 298° West 258 297 8,200 -1,463 Descending Chicago Center
11:34AM 41.3181 -87.0867 299° West 261 300 6,700 -1,073 Descending Chicago Center
11:35AM 41.3578 -87.1872 298° West 258 297 6,000 -341 Descending Chicago Center
11:36AM 41.3906 -87.2689 298° West 253 291 6,000  Level Chicago Center
11:36AM 41.4000 -87.3167 285° West 248 285 6,000  Level Chicago TRACON
11:37AM 41.4333 -87.3833 304° West 249 287 6,000 -379 Level Chicago TRACON
11:38AM 41.4517 -87.4308 297° West 247 284 5,400 -1,175 Descending Chicago Center
11:39AM 41.4742 -87.5144 290° West 245 282 4,100 -683 Descending Chicago Center
11:40AM 41.5000 -87.5942 293° West 241 277 4,000 -49 Descending Chicago Center
11:41AM 41.5272 -87.6719 295° West 236 272 4,000 -195 Level Chicago Center
11:42AM 41.5611 -87.7681 295° West 238 274 3,600 -488 Descending Chicago Center
11:43AM 41.5950 -87.8333 305° West 226 260 3,000 -293 Descending Chicago Center
11:44AM 41.6275 -87.8828 311° West 198 228 3,000  Level Chicago Center
11:45AM 41.6747 -87.8800 North 196 226 3,000 -412 Level Chicago Center
11:46AM 41.7333 -87.8333 31° Northeast 183 211 2,100 -756 Descending Chicago TRACON
11:47AM 41.7500 -87.7833 66° East 128 147 1,300 -727 Descending Chicago TRACON